SAUDISAT 1C 1 27607U 02058C 25021.88049553 .00003556 00000-0 47211-3 0 9996 2 27607 64.5542 268.4195 0039438 10.2836 349.9066 14.80808536188683 SAUDISAT 2 1 28371U 04025F 25021.89204760 .00001110 00000-0 26186-3 0 9997 2 28371 98.5114 4.8957 0026135 68.4300 291.9678 14.56074112 91320 SAUDISAT 3 1 31118U 07012B 25021.85862557 .00001074 00000-0 18382-3 0 9997 2 31118 98.0831 329.2010 0015991 57.3311 302.9435 14.70798835952573 PISAT 1 41784U 16059B 25021.61484321 .00002894 00000-0 51756-3 0 9994 2 41784 97.8234 39.6990 0030848 40.7198 319.6305 14.67291474444674 FLYING LAPTOP 1 42831U 17042G 25021.93507909 .00005846 00000-0 50489-3 0 9996 2 42831 97.3904 196.6747 0012915 61.5578 298.6945 14.97524578409842